#timestamp,LO_Frequency,Hit,StdDev 
1623492015.2,286046999.7,N
1623492035.9,286046999.8,N
1623492055.7,286047002.3,N
1623492075.6,286046999.8,N
1623492095.4,286047000.7,N
1623492115.2,286047000.8,N
1623492135.1,286047000.2,N
1623492136.0,286047000.2,N
1623492155.8,286047000.0,N
1623492175.7,286047002.4,N
1623492195.5,286047002.2,N
1623492215.3,286047002.6,N
1623492235.2,286047000.6,N
1623492255.9,286047000.8,N
1623492275.8,286046999.8,N
1623492295.6,286047000.6,N
1623492315.4,286047000.9,N
1623492335.3,286047000.9,N
1623492355.1,286047001.0,N
1623492375.8,286047001.2,N
1623492395.7,286046998.6,N
1623492415.5,286046998.3,N
1623492435.4,286046998.8,N
1623492455.2,286047001.1,N
1623492475.0,286046998.4,N
1623492475.9,286046998.4,N
1623492495.8,286047000.4,N
1623492515.6,286047002.8,N
1623492535.4,286047004.2,Y
1623492555.3,286047002.7,P
1623492575.1,286047002.4,N
1623492595.9,286047001.2,N
1623492615.7,286046998.2,N
1623492635.5,286046998.2,N
1623492655.4,286047000.9,N
1623492675.2,286047000.6,N
1623492695.0,286047000.2,N
1623492695.9,286047000.2,N
1623492715.8,286047000.7,N
1623492735.6,286047000.9,N
1623492755.5,286047002.7,N
1623492775.3,286047000.5,N
1623492795.1,286047000.7,N
1623492815.9,286046999.7,N
1623492835.7,286047001.2,N
1623492855.5,286047000.2,N
1623492875.4,286047002.8,N
1623492895.2,286047000.3,N
1623492915.1,286047000.2,N
1623492916.0,286047000.2,N
1623492935.8,286047000.0,N
1623492955.6,286047000.1,N
1623492975.5,286047002.5,N
1623492995.3,286047001.1,N
1623493015.2,286047001.2,N
1623493035.0,286047000.6,N
1623493035.9,286047000.6,N
1623493055.7,286047000.8,N
1623493075.6,286046998.8,N
1623493095.4,286046999.1,N
1623493115.3,286046996.9,N
1623493135.1,286046999.1,N
1623493136.0,286046999.1,N
1623493155.8,286046998.7,N
1623493175.7,286046999.5,N
1623493195.5,286046997.2,N
1623493215.3,286046997.4,N
1623493235.2,286046996.8,N
1623493255.0,286046997.0,N
1623493255.9,286046997.0,N
1623493275.8,286046999.2,N
1623493295.6,286046998.6,N
1623493315.4,286046998.7,N
1623493335.3,286046999.2,N
1623493355.1,286046997.4,N
1623493375.8,286046997.4,N
1623493395.7,286046997.3,N
1623493415.5,286046996.9,N
1623493435.4,286046997.3,N
1623493455.2,286046997.6,N
1623493475.0,286046995.5,N
1623493475.9,286046995.5,N
1623493495.8,286046997.7,N
1623493515.6,286046997.6,N
1623493535.4,286046995.9,N
1623493555.3,286046997.5,N
1623493575.1,286046995.0,Y
1623493595.9,286046998.3,P
1623493615.7,286046998.3,P
1623493635.6,286046998.7,P
1623493655.4,286046998.5,Y
1623493675.2,286047000.1,P
1623493695.1,286047000.2,N
1623493696.0,286047000.2,N
1623493715.8,286046998.2,N
1623493735.7,286047001.0,N
1623493755.5,286047000.9,N
1623493775.3,286047000.4,N
1623493795.2,286046999.9,N
1623493815.0,286046998.8,N
1623493815.9,286046998.8,N
1623493835.8,286046999.0,N
1623493855.6,286046999.2,N
1623493875.5,286046997.9,N
1623493895.3,286046997.7,N
1623493915.1,286046995.4,Y
1623493935.9,286046998.0,P
1623493955.7,286046997.8,P
1623493975.6,286046997.2,P
1623493995.4,286046997.0,Y
1623494015.3,286046998.3,P
1623494035.1,286046998.9,P
1623494036.0,286046998.9,P
1623494055.8,286047001.0,N
1623494075.7,286047000.9,N
1623494095.5,286046998.7,N
1623494115.3,286046999.6,N
1623494135.2,286046996.7,Y
1623494155.0,286046999.1,P
1623494155.9,286046999.1,P
1623494175.8,286046999.4,P
1623494195.6,286046998.4,Y
1623494215.4,286046998.2,P
1623494235.3,286047000.8,N
1623494255.1,286046999.0,N
1623494275.9,286046997.0,Y
1623494295.7,286046999.1,P
1623494315.5,286046996.5,P
1623494335.4,286046998.7,N
1623494355.2,286047000.9,N
1623494375.1,286046998.1,N
1623494376.0,286046998.1,N
1623494395.8,286047000.0,N
1623494415.6,286046999.8,N
1623494435.5,286047002.8,N
1623494455.3,286047002.6,N
1623494475.2,286047001.6,N
1623494495.9,286047002.8,N
1623494515.7,286047001.8,N
1623494535.6,286047004.3,N
1623494555.4,286047004.4,N
1623494575.2,286047006.0,N
1623494595.1,286047003.8,N
1623494596.0,286047003.8,N
1623494615.8,286047006.0,N
1623494635.7,286047003.3,N
1623494655.5,286047003.4,N
1623494675.3,286047004.1,N
1623494695.2,286047002.6,N
1623494715.9,286047002.1,N
1623494735.7,286047002.5,N
1623494755.6,286047001.6,N
1623494775.4,286047002.0,N
1623494795.2,286047001.8,N
1623494815.1,286047002.5,N
1623494816.0,286047002.5,N
1623494835.8,286047001.8,N
1623494855.7,286047004.4,N
1623494875.5,286047004.0,N
1623494895.3,286047004.0,N
1623494915.2,286047003.1,N
1623494935.0,286047004.1,N
1623494935.9,286047004.1,N
1623494955.8,286047003.5,N
1623494975.6,286047001.7,N
1623494995.4,286047001.4,N
1623495015.3,286047001.5,N
1623495035.1,286047003.4,N
1623495055.8,286047003.5,N
1623495075.7,286047002.9,N
1623495095.5,286047004.7,Y
1623495115.4,286047002.4,P
1623495135.2,286046999.9,N
1623495155.0,286047000.4,N
1623495155.9,286047000.4,N
1623495175.8,286047000.0,N
1623495195.6,286047000.3,N
1623495215.4,286047000.0,N
1623495235.3,286047000.3,N
1623495255.1,286046999.7,N
1623495275.9,286047000.0,N
1623495295.7,286046999.9,N
1623495315.5,286047002.3,N
1623495335.4,286047002.2,N
1623495355.2,286047002.2,N
1623495375.0,286047001.9,N
1623495375.9,286047001.9,N
1623495395.8,286047001.6,N
1623495415.6,286047003.5,Y
1623495435.5,286047003.9,P
1623495455.3,286047002.3,N
1623495475.1,286047002.0,N
1623495495.9,286046999.9,N
1623495515.7,286046998.3,N
1623495535.5,286047000.5,N
1623495555.4,286047002.8,N
1623495575.2,286047000.1,N
1623495595.1,286047002.3,N
1623495596.0,286047002.3,N
